STPSAT-5

Satellite information

Favourite Embed

Satellite Type and Status

PAYLOADIN ORBIT

Key statistics

Satellite STPSAT-5 at a glance.

Uptime

2470

Days in orbit

Revolutions

≈ 15.1

Per day

Orbit

SSO

Sun Synchronous Orbit

Inclination

97.5

Latest

Satellite identification and parameters

Extended collection of information and parameters for STPSAT-5.

Object identification

Identified? True

Debris? False

Object name: STPSAT-5

International designator: 2018-099E

Object number (NORAD): 43762

Object ID (CCSDS): 43762

Country: UNITED STATES OF AMERICA (US)

Current information (Y/N): Y

RCS size: MEDIUM

Orbital parameters

Period: 95.345 minutes

Inclination: 97.454 deg

SMA: 6913.418 km

Apoapsis: 536.995 km

Periapsis: 533.57 km

RAAN: 302.3003 deg

Eccentricy: 0.00024772

Argument of periapsis: 204.6545 deg

Mean anomaly: 155.4566 deg

Mean motion: 15.10301198 rev/day

Mean motion (dot): 0.00007191 rev/day2

B* drag term: 0.00044257375 1/REarth

Two-line elements (TLE)

Creation date: Sept. 7, 2025, 3:09 a.m.

Reference frame: TEME

Reference center: EARTH

Epoch: Sept. 6, 2025, 8:58 p.m. UTC

TLE line 0: 0 STPSAT-5

TLE line 1: 1 43762U 18099E 25249.87420947 .00007191 00000-0 44257-3 0 9995

TLE line 2: 2 43762 97.4540 302.3003 0002477 204.6545 155.4566 15.10301198370056

Live tracking on map

Real-time ground track for satellite STPSAT-5.

In-orbit conjunctions

There are no conjunctions computed for STPSAT-5, at the moment. Check back to stay up to date, as we update our databases every day.

Go to all conjunctions

Associated space launch

Dedicated rideshare launching payloads into sun-synchronous orbit. Payloads include ORS-6, EU:CROPIS, STPSat-5, BlackSky Global-1 to -4, HawkEye Pathfinder 1-3, Iceye, NEXTSat-1, 2 SkySats, Centauri II, and a Flock of Doves.

STPSAT-5 was lifted into orbit during the mission ‘Falcon 9 Block 5 | Spaceflight SSO-A’, on board a Falcon 9 space rocket.

The launch took place on Dec. 3, 2018, 6:34 p.m. from Space Launch Complex 4E.

For more information about the launch, click the button.

Launch to space Falcon 9 Block 5 | Spaceflight SSO-A
Falcon 9 Block 5 | Spaceflight SSO-A

Agency: N/A

Status: Launch Successful

Launch date: Dec. 3, 2018, 6:34 p.m. UTC

Rocket: Falcon 9

Launch pad: Space Launch Complex 4E

Location: Vandenberg SFB, CA, USA

...

Latest news about this satellite

There are no fresh news available about this satellite. Check back as we update our databases every day.


Newsletter sign-up

Weekly statistics, charts and insights to help you stay on top of the space industry.